Terminal Aerodrome Forecast
Issued by NWS Wilmington, OH

Current Version | Previous Version | Text Only | Print | Product List | Glossary Off
Versions: 1 2 3 4 5 6 7 8 9 10 11 12 13 14 15 16 17

000
FTUS41 KILN 300500
TAFDAY
TAF
KDAY 300520Z 3006/3106 23014KT P6SM -RA SCT025 BKN040
     FM300700 28012G20KT P6SM SCT022
     FM301600 28014G22KT P6SM SCT040
     FM310000 23006KT P6SM SCT080 BKN150=

USA.gov is the U.S. government's official web portal to all federal, state and local government web resources and services.